Las Vegas, NV

9:15 AM PDT on June 26, 2017 (GMT -0700)
McCarran International

Weather History for KLAS - November, 2011

Change the Weather History Date:

Tuesday, November 8, 2011

  Actual Average Record
Temperature  
Mean Temperature 50 °F 60 °F  
Max Temperature 59 °F 70 °F 83 °F (1950)
Min Temperature 40 °F 50 °F 24 °F (1938)
Degree Days  
Heating Degree Days 15 6  
Month to date heating degree days 95 39  
Since 1 July heating degree days 126 78  
Cooling Degree Days 0 1  
Month to date cooling degree days 1 9  
Year to date cooling degree days 3540 3565  
Moisture  
Dew Point 19 °F    
Average Humidity 32    
Maximum Humidity 44    
Minimum Humidity 19    
Precipitation  
Precipitation 0.00 in 0.01 in 0.29 in (1966)
Month to date precipitation 0.04 0.09  
Year to date precipitation 2.13 3.42  
Snow  
Snow 0.00 in 0.00 in 0.00 in ()
Month to date snowfall 0.0 0.0  
Since 1 July snowfall 0.0 0.0  
Since 1 September snowfall 0.0 0.0  
Snow Depth 0.00 in    
Sea Level Pressure  
Sea Level Pressure 30.24 in    
Wind  
Wind Speed 5 mph (SSW)    
Max Wind Speed 12 mph    
Max Gust Speed 14 mph    
Visibility 10 miles    
Events      
T = Trace of Precipitation, MM = Missing Value Source: NWS Daily Summary

Daily Weather History Graph

Daily Weather History Graph

Search for Another Location

Airport or City:

Trip Planner

Search our weather history database for the weather conditions in past years. The results will help you decide how hot, cold, wet, or windy it might be!

Date:

Astronomy

Nov. 08, 2011 Rise Set
Actual Time 6:09 AM PST 4:38 PM PST
Civil Twilight 5:43 AM PST 5:05 PM PST
Nautical Twilight 5:12 AM PST 5:35 PM PST
Astronomical Twilight 4:42 AM PST 6:05 PM PST
Moon 3:19 PM PST (11/8) 4:14 AM PST (11/8)
Length of Visible Light 11h 22m
Length of Day
10h 28m
Waxing Gibbous, 96% of the Moon is Illuminated
Nov 8
Waxing Gibbous
Nov 10
Full
Nov 18
Last Quarter
Nov 24
New
Dec 2
First Quarter

Hourly Weather History & Observations

Time (PST) Temp. Windchill Dew Point Humidity Pressure Visibility Wind Dir Wind Speed Gust Speed Precip Events Conditions
12:56 AM 45.0 °F 40.6 °F 19.0 °F 36% 30.15 in 10.0 mi West 8.1 mph - N/A   Clear
1:56 AM 43.0 °F 37.2 °F 19.9 °F 40% 30.16 in 10.0 mi South 10.4 mph - N/A   Clear
2:56 AM 43.0 °F 39.5 °F 19.0 °F 38% 30.17 in 10.0 mi SSW 5.8 mph - N/A   Clear
3:56 AM 41.0 °F 36.4 °F 19.0 °F 41% 30.17 in 10.0 mi SSW 6.9 mph - N/A   Clear
4:56 AM 39.9 °F 33.9 °F 19.0 °F 43% 30.19 in 10.0 mi SSW 9.2 mph - N/A   Clear
5:56 AM 39.9 °F 33.9 °F 19.0 °F 43% 30.22 in 10.0 mi SSW 9.2 mph - N/A   Clear
6:56 AM 41.0 °F 36.4 °F 19.0 °F 41% 30.25 in 10.0 mi SSW 6.9 mph - N/A   Clear
7:56 AM 45.0 °F 40.6 °F 19.0 °F 36% 30.26 in 10.0 mi South 8.1 mph - N/A   Clear
8:56 AM 46.9 °F - 19.0 °F 33% 30.27 in 10.0 mi SSW 5.8 mph - N/A   Clear
9:56 AM 51.1 °F - 18.0 °F 27% 30.27 in 10.0 mi SSW 4.6 mph - N/A   Clear
10:56 AM 53.1 °F - 18.0 °F 25% 30.26 in 10.0 mi Calm Calm - N/A   Clear
11:56 AM 55.0 °F - 17.1 °F 23% 30.24 in 10.0 mi Calm Calm - N/A   Clear
12:56 PM 57.0 °F - 16.0 °F 20% 30.23 in 10.0 mi Calm Calm - N/A   Clear
1:56 PM 57.9 °F - 16.0 °F 19% 30.21 in 10.0 mi Calm Calm - N/A   Clear
2:56 PM 57.9 °F - 17.1 °F 20% 30.22 in 10.0 mi Calm Calm - N/A   Clear
3:56 PM 57.0 °F - 17.1 °F 21% 30.22 in 10.0 mi Calm Calm - N/A   Clear
4:56 PM 55.0 °F - 17.1 °F 23% 30.23 in 10.0 mi South 3.5 mph - N/A   Clear
5:56 PM 54.0 °F - 19.0 °F 25% 30.25 in 10.0 mi South 5.8 mph - N/A   Clear
6:56 PM 51.8 °F - 19.4 °F 28% 30.26 in 10.0 mi Calm Calm - N/A   Clear
7:56 PM 50.0 °F - 19.9 °F 31% 30.28 in 10.0 mi SW 6.9 mph - N/A   Clear
8:56 PM 48.0 °F - 19.9 °F 33% 30.30 in 10.0 mi SSW 6.9 mph - N/A   Clear
9:56 PM 46.9 °F - 19.9 °F 34% 30.32 in 10.0 mi SSW 4.6 mph - N/A   Clear
10:56 PM 44.6 °F 39.7 °F 21.2 °F 39% 30.32 in 10.0 mi South 9.2 mph - N/A   Clear
11:56 PM 43.0 °F 38.2 °F 21.0 °F 42% 30.33 in 10.0 mi SSW 8.1 mph - N/A   Clear